EHI
0 0 1 2 3 2 1 0 0 0 0 0 0 0 0 0 0 0 0 0 0 0 0 0 0 0 0 0 0 0 0 0 0 0 0 0 0 0 0 0 0 0 0
0 0 1 2 2 2 1 0 0 0 0 0 0 0 0 0 0 0 0 0 0 0 0 0 0 0 0 0 0 0 0 0 0 0 0 0 0 0 0 0 0 0 0
0 0 0 1 1 1 0 0 0 0 0 0 0 0 0 0 0 0 0 0 0 0 0 0 0 0 0 0 0 0 0 0 0 0 0 0 0 0 0 0 0 0 0
0 0 0 0 0 0 0 0 0 0 0 0 0 0 0 0 0 0 0 0 0 0 0 0 0 0 0 0 0 0 0 0 0 0 0 0 0 0 0 0 0 0 0
0 0 0 0 0 0 0 0 0 0 0 0 0 0 0 0 0 0 0 0 0 0 0 0 0 0 0 0 0 0 0 0 0 0 0 0 0 0 0 0 0 0 0
0 0 0 0 0 0 0 0 0 0 0 0 0 0 0 0 0 0 0 0 0 0 0 0 0 0 0 0 0 0 0 0 0 0 0 0 0 0 0 0 1 0 0
0 0 0 0 0 0 0 0 0 0 0 0 0 0 0 0 0 0 0 0 0 0 0 0 0 0 0 0 0 0 0 0 0 0 0 0 0 0 0 0 0 0 0
0 0 0 0 0 0 0 0 0 0 0 0 0 0 0 0 0 0 0 0 0 0 0 0 0 0 0 0 0 0 0 0 0 0 0 0 0 0 0 0 0 0 0
1 1 1 0 0 0 0 0 0 0 0 0 0 0 0 0 0 0 0 0 0 0 0 0 0 0 0 0 0 0 0 0 0 0 0 0 0 0 0 0 0 0 0
1 1 1 0 0 0 0 0 0 0 0 0 0 0 0 0 0 0 0 0 0 0 0 0 0 0 0 0 0 0 0 0 0 0 0 0 0 0 0 0 0 0 0
0 0 0 0 0 0 0 0 0 0 0 0 0 0 0 0 0 0 0 0 0 0 0 0 0 0 0 0 0 0 0 0 0 0 0 0 0 0 0 0 0 0 0
0 0 0 0 0 0 0 0 0 0 0 0 0 0 0 0 0 0 0 0 0 0 0 0 0 0 0 0 0 0 0 0 0 0 0 0 0 0 0 0 0 0 0
0 0 0 0 0 0 0 0 0 0 0 0 0 0 0 0 0 0 0 0 0 0 0 0 0 0 0 0 0 0 0 0 0 0 0 0 0 0 0 0 0 1 1
0 0 0 0 0 0 0 0 0 0 0 0 0 0 0 0 0 0 0 0 0 0 0 0 0 0 0 0 0 0 0 0 0 0 0 0 0 0 0 0 0 0 0
0 0 0 0 0 0 0 0 0 0 0 0 0 0 0 0 0 0 0 0 0 0 0 0 0 0 0 0 0 0 0 0 0 0 0 0 0 0 0 0 0 0 0
0 0 0 0 0 0 0 0 0 0 0 0 0 0 0 0 0 0 0 0 0 0 0 0 0 0 0 0 0 0 0 0 0 0 0 0 0 0 0 0 0 0 0
0 0 0 0 0 0 0 0 0 0 0 0 0 0 0 0 0 0 0 0 0 0 0 0 0 0 0 0 0 0 0 0 0 0 0 0 0 0 0 0 0 0 0
0 0 0 0 0 0 0 0 0 0 0 0 0 0 0 0 0 0 0 0 0 0 0 0 0 0 0 0 0 0 0 0 0 0 0 0 0 0 0 0 0 0 0
0 0 0 0 0 0 0 0 0 0 0 0 0 0 0 0 0 0 0 0 0 0 0 0 0 0 0 0 0 0 0 0 0 0 0 0 0 0 0 0 0 0 0
0 0 0 0 0 0 0 0 0 0 0 0 0 0 0 0 0 0 0 0 0 0 0 0 0 0 0 0 0 0 0 0 0 0 0 0 0 0 0 0 0 0 0
0 0 0 0 0 0 0 0 0 0 0 0 0 0 0 0 0 0 0 0 0 0 0 0 0 0 0 0 0 0 0 0 0 0 0 0 0 0 0 0 0 0 0
0 0 0 0 0 0 0 0 0 0 0 0 0 0 0 0 0 0 0 0 0 0 0 0 0 0 0 0 0 0 0 0 0 0 0 0 0 0 0 0 0 0 0
0 0 0 0 0 0 0 0 0 0 0 0 0 0 0 0 0 0 0 0 0 0 0 0 0 0 0 0 0 0 0 0 0 0 0 0 0 0 0 0 0 0 0
0 0 0 0 0 0 0 0 0 0 0 0 0 0 0 0 0 0 0 0 0 0 0 0 0 0 0 0 0 0 0 0 0 0 0 0 0 0 0 0 0 0 0
0 0 0 0 0 0 0 0 0 0 0 0 0 0 0 0 0 0 0 0 0 0 0 0 0 0 0 0 0 0 0 0 0 0 0 0 0 0 0 0 0 0 0
0 0 0 0 0 0 0 0 0 0 0 0 0 0 0 0 0 0 0 0 0 0 0 0 0 0 0 0 0 0 0 0 0 0 0 0 0 0 0 0 0 0 0
Wind_Speed
4 4 4 4 5 4 5 5 6 6 6 6 6 6 6 5 4 3 4 10 10 10 11 11 10 10 10 9 9 8 7 7 7 7 7 6 6 6 7 7 7 7 7
3 4 4 5 5 4 5 6 6 6 5 5 5 5 5 5 4 4 4 7 10 11 11 11 11 11 10 10 10 9 7 7 7 7 8 8 8 8 8 8 8 9 8
4 4 4 4 4 5 5 5 6 5 4 5 5 6 5 5 4 5 5 5 6 9 10 11 11 10 10 10 10 9 8 8 7 7 7 8 8 9 9 9 10 9 9
5 4 4 4 4 4 4 4 4 4 4 4 4 4 4 4 5 5 5 5 5 5 8 11 10 10 10 10 10 10 9 9 8 8 8 8 9 9 10 10 10 10 9
5 4 4 4 4 4 4 4 4 4 4 4 4 4 4 4 4 4 5 5 5 5 5 8 9 9 9 10 11 11 10 10 9 9 9 9 9 10 10 10 10 11 11
5 5 4 4 4 4 4 4 4 4 4 4 4 4 3 4 4 4 5 4 4 5 5 5 5 7 9 9 10 11 11 11 10 9 10 10 10 11 11 11 11 11 11
4 4 4 4 4 4 5 5 4 4 4 3 3 2 3 4 4 4 4 4 4 4 4 5 4 4 4 9 10 11 11 12 11 11 10 11 11 12 12 12 12 12 12
4 4 4 4 4 4 4 5 4 4 3 4 4 3 2 2 4 5 4 4 5 4 4 5 5 5 4 4 6 10 10 11 13 12 12 12 12 12 13 13 13 12 12
3 3 4 4 4 4 4 5 6 5 4 4 4 4 4 4 1 2 4 4 4 3 4 4 5 5 5 4 4 7 9 10 13 13 13 13 13 13 13 13 13 13 13
3 4 4 4 4 4 4 5 4 4 5 4 3 3 2 2 3 2 2 3 4 4 4 4 4 5 6 4 5 7 8 10 12 14 14 14 14 14 14 14 13 13 13
3 3 3 3 3 3 4 4 4 4 4 4 4 3 3 2 3 3 3 3 3 3 4 5 4 4 5 5 4 6 8 10 13 14 15 15 15 15 15 15 14 14 13
1 2 2 2 2 3 3 4 4 4 4 4 3 3 3 3 3 3 4 4 4 4 4 4 4 4 3 3 5 6 8 10 12 14 15 15 15 15 16 15 14 14 14
1 2 2 1 1 2 3 3 4 4 4 4 4 3 3 3 2 2 3 3 4 3 3 4 4 4 3 3 4 7 8 9 10 13 15 15 14 13 14 14 15 15 14
1 2 2 1 0 1 1 2 2 3 3 3 3 3 2 2 2 2 2 2 4 4 4 4 2 4 3 3 4 6 6 9 10 12 13 13 12 12 12 13 14 14 14
2 2 2 1 0 1 1 1 2 3 3 3 3 3 3 2 2 2 3 3 4 5 6 3 2 2 2 3 5 5 6 9 10 11 12 11 11 11 12 13 13 12 13
2 2 1 1 1 1 2 2 2 2 3 3 3 4 4 3 2 2 3 3 3 4 6 3 3 3 3 3 5 5 6 9 10 11 11 10 10 11 12 12 12 12 11
2 2 1 1 1 1 1 1 2 2 3 3 3 4 5 4 3 3 3 3 4 4 6 5 3 3 4 4 4 5 5 5 6 10 11 11 10 11 11 11 11 11 11
3 2 1 1 1 0 0 1 1 2 3 3 3 3 4 3 4 3 3 4 4 4 5 7 5 3 4 5 5 5 5 5 5 9 11 10 10 10 10 10 10 10 11
3 3 3 1 1 1 1 0 1 1 2 2 2 3 3 3 3 3 4 4 4 4 4 5 5 4 4 4 4 5 5 5 5 6 9 10 10 11 10 10 10 9 9
4 3 3 2 1 1 1 1 1 1 1 1 1 2 2 3 3 3 3 4 4 4 4 4 4 4 4 3 3 4 5 4 5 5 7 7 9 11 11 11 10 9 9
4 3 3 3 2 1 1 1 1 1 1 1 2 2 2 2 4 3 3 3 4 4 4 4 5 4 4 3 4 3 5 5 5 4 4 5 5 5 7 9 9 10 9
3 3 3 3 3 2 3 4 3 1 2 2 2 2 3 3 4 5 6 6 5 5 5 4 5 6 6 5 4 4 4 4 5 3 4 5 4 5 5 5 8 9 9
3 3 3 3 2 3 5 5 5 2 2 2 3 3 3 3 4 4 5 6 6 7 7 6 6 7 6 5 5 5 5 5 6 4 4 6 3 5 4 5 8 8 8
3 3 2 3 2 3 4 5 5 2 2 3 3 3 3 3 4 5 4 4 5 5 6 6 6 7 6 6 6 7 7 5 5 4 3 5 4 4 4 4 7 8 8
3 3 3 3 3 4 6 5 5 2 2 3 3 3 4 4 6 7 5 5 6 6 6 8 9 8 8 7 5 3 3 3 4 4 2 2 3 3 3 3 4 7 7
3 4 3 3 3 3 6 7 5 2 2 3 3 3 4 5 7 7 4 5 6 6 5 6 6 6 6 5 5 4 4 4 4 4 2 2 2 1 2 2 2 3 4
Wind_Direction
192 188 184 181 183 185 184 185 194 197 202 204 203 200 205 214 203 184 168 183 188 198 208 216 220 224 227 229 232 235 238 242 245 248 253 257 260 266 272 277 280 281 283
193 189 187 184 187 186 188 189 195 197 200 200 209 206 205 209 207 191 174 190 196 199 208 217 222 225 228 231 234 235 236 242 250 254 256 258 262 266 269 272 275 275 274
194 194 192 187 190 187 192 193 197 195 198 199 208 211 207 207 205 198 186 184 194 203 207 216 222 224 228 232 236 237 238 243 248 253 258 261 265 269 272 272 272 272 267
195 194 197 193 192 187 188 196 192 192 198 197 205 212 208 207 211 204 193 189 187 192 205 212 217 222 228 235 239 240 240 242 246 251 256 260 266 270 274 275 274 270 268
197 189 196 196 191 189 186 198 197 187 196 202 208 211 208 207 212 210 204 199 192 186 188 204 209 218 229 237 241 244 244 244 246 250 256 260 265 269 272 274 275 272 268
205 193 194 196 192 192 189 188 199 193 193 199 211 218 221 217 210 210 208 202 196 195 190 194 201 217 224 234 241 246 248 249 250 252 256 259 263 267 270 270 271 273 272
210 199 198 199 194 196 194 188 192 196 201 191 183 214 245 234 220 209 206 202 203 201 195 198 199 204 215 226 235 244 249 250 252 255 257 260 264 267 269 271 272 272 273
209 205 199 199 201 197 195 193 187 195 200 187 173 169 213 244 237 224 212 205 206 199 203 207 205 207 210 209 228 235 243 248 253 257 257 260 263 264 266 268 268 269 272
212 205 207 207 205 197 198 199 194 192 199 203 184 174 179 207 226 233 220 216 207 203 211 214 212 214 215 213 215 227 237 245 251 256 258 261 262 262 263 265 265 265 268
218 211 216 217 212 202 200 204 200 196 189 198 206 208 204 170 171 220 240 223 216 217 220 224 224 221 218 215 218 225 232 241 249 255 259 262 263 263 263 264 265 267 266
229 212 210 212 216 205 199 196 203 204 197 196 199 200 217 225 203 191 222 223 235 227 228 230 229 222 217 217 216 227 235 242 250 256 260 261 264 266 266 264 264 267 267
239 236 215 204 216 210 198 196 196 200 206 208 208 205 199 197 206 211 221 223 232 231 232 230 226 225 225 225 236 243 246 249 253 256 259 261 264 267 268 265 265 266 266
270 258 254 229 224 219 199 190 191 198 203 203 209 219 223 224 215 220 226 238 254 259 237 230 221 217 223 223 236 244 247 255 257 258 259 262 266 269 268 266 267 266 265
279 272 259 246 268 265 203 180 183 200 202 206 216 214 222 234 228 233 222 228 252 255 239 238 228 215 222 227 246 249 247 253 257 261 263 266 268 269 267 267 267 266 266
285 255 241 223 230 260 220 192 191 200 200 210 209 213 222 232 231 237 235 217 224 250 249 237 240 231 245 243 248 245 245 253 256 259 261 264 265 265 263 264 264 264 261
323 283 260 207 196 255 223 199 205 202 202 218 216 216 223 224 227 229 232 233 231 244 259 257 268 270 261 271 265 258 252 259 253 256 260 262 262 264 261 257 255 256 256
337 303 273 212 188 257 230 198 239 223 216 224 227 224 229 224 221 225 230 229 235 241 260 276 272 272 266 267 265 257 257 253 251 254 257 257 259 260 258 255 253 252 250
339 343 333 25 24 353 118 176 251 247 233 229 231 230 238 238 229 231 231 235 238 243 249 270 276 266 261 251 255 257 264 265 256 260 259 257 258 259 258 254 252 250 247
6 7 0 23 20 68 66 345 268 269 264 247 241 241 246 237 234 237 238 236 240 257 250 258 269 271 268 253 260 268 266 265 269 264 262 259 257 257 255 253 251 247 244
19 11 1 6 358 75 80 334 308 284 283 298 278 253 254 248 242 245 250 245 244 246 249 253 262 268 265 255 251 263 276 265 268 272 263 267 266 258 254 253 250 243 237
11 7 3 7 4 23 38 353 317 315 283 285 291 280 275 283 281 272 270 263 256 250 253 258 261 266 266 260 255 262 274 282 274 265 265 262 259 251 242 247 244 236 232
2 7 9 4 358 2 10 5 356 317 291 276 278 282 281 273 285 290 286 283 277 261 255 252 261 261 264 263 261 266 272 281 280 251 266 273 262 257 254 243 244 239 234
2 6 360 358 347 354 3 358 347 310 274 267 267 271 283 294 302 273 285 295 284 280 264 249 254 257 256 258 255 257 259 266 275 268 263 269 260 260 265 263 247 235 235
355 352 351 349 340 345 355 350 343 301 274 271 267 266 271 278 285 299 292 284 276 274 270 256 248 250 250 244 237 242 249 268 286 276 255 260 257 260 272 265 244 231 233
348 345 343 347 347 345 358 351 346 287 274 272 272 275 274 268 295 308 295 281 280 281 288 288 282 275 271 269 268 258 257 261 284 278 253 250 265 283 274 259 255 240 233
340 338 342 345 343 341 350 353 348 303 299 295 286 278 287 296 305 310 288 280 281 284 292 290 288 285 268 258 260 234 227 243 267 267 242 232 250 268 279 277 272 248 228